Showing default

HEALTHSAT 1, 22827

Orbit data source: Space-Track

HEALTHSAT 1, 22827 is a payload satellite owned by AMSAT-I (US) in SSO that was launched on Sun, 26 Sep 1993 UTC via an ARIANE 40 launch vehicle from the French Guiana (FRGUI). Payload-class satellites include a variety of spacecraft equipped with specific instruments for various scientific and technological missions. These include communications satellites like Starlink; space stations such as the ISS; scientific satellites like the Hubble; Earth observation satellites from companies like Planet Labs, Umbra, and HawkEye 360; GPS; miniature CubeSats for education and research; and military/defense satellites.

Loading next visibility...
Identifier
22827, 1993-061E
Orbit
SSO
Last TLE update
5 hours ago
Origin
Manufacturer
AMSAT-I
Mission
Non-operational Amateur Communications
Bus & Motor
MICROSAT, Unknown motor
Mass
12 kg wet, 12 kg dry
Launch date (UTC)
1993-09-26 (32 years ago)
Launch vehicle
ARIANE 40
Launch site
French Guiana (FRGUI)
Object type
Payload
Rocket body
Debris
Shape & HBR
Box, 0.3 m
Radar Cross Section
0.135 m², Medium (>0.1 m² and < 1m²)

Expand to show TLE details & history

TLE from 5 hours ago
0 HEALTHSAT 1
1 22827U 93061E   25182.19449977  .00000131  00000-0  65078-4 0  9993
2 22827  98.6870 245.8888 0008478 348.1906  80.3235 14.32350121658071
Epoch: 2025-07-01T04:40Z
TLE epoch observation values (Epoch: 2025-07-01T04:40:04.78Z)
Latitude
67.07501°
Longitude
-124.68445°
Altitude
794.438 km
Speed
7.463 km/s
True Right ascension
14h 59m 18s
True Declination
66° 57' 07"
Sunlit
Object was in daylight at epoch
Visualization orbit readout
Latitude
74.65145°
Longitude
-137.03373°
Altitude
796.587 km
Speed
7.462 km/s
Apparent Right ascension
10h 35m 31s
Apparent Declination
26° 02' 36"
Sunlit
Object is in daylight
Visualization observer readout
Local Sidereal Time
21:22:35
Azimuth
342.365° N
Elevation
-21.887°
Doppler factor
1
Orbital elements
Apogee altitude
787.097 km
Perigee altitude
774.958 km
Semi-major axis
7,159.164 km
Eccentricity
0.00085
Inclination
98.687°
RAAN
245.8888°
Arg. of periapsis
348.1906°
True anomaly
Unknown
Mean anomaly
80.3235°
Eccentric anomaly
Unknown
Mean motion
3.58302 °/min
Orbital period
100.47 mins
BSTAR
0.000065078
Loading maneuver chart data...
Loading SW <> Apogee altitude chart data...
Loading historical data...
Loading historical data...
Loading historical data...
Loading historical data...
Loading historical data...
Loading historical data...
Loading historical data...

HEALTHSAT 1 Visibility forecast

Observer location: undefined°, undefined°

Span
Click to sort rows by Start time (UTC) header in descending order
Start Az.
Max El. time (UTC)
Max El. Az.
Max El.
End time (UTC)
End Az.
9 mins2025-07-01 16:40:15.540Z29.836° NE2025-07-01 16:44:15.540Z94.71° ESE35.541°2025-07-01 16:49:15.540Z172.174° S
5 mins2025-07-01 18:21:15.540Z327.632° NNW2025-07-01 18:23:15.540Z297.895° NW20.403°2025-07-01 18:26:15.540Z255.535° W
8 mins2025-07-02 03:57:15.540Z149.401° SSE2025-07-02 04:00:15.540Z102.877° ESE41.052°2025-07-02 04:05:15.540Z354.025° N
|